HobbyCNC fórum
  v0.9.3.9

Fórum betekintő Fórum címe: http://forum.hobbycnc.hu



Próba topik - a képek és linkelések "begyakorlásához" :)

Az első hozzászólásokat olvasd el, minden le van írva!


Időrend:
Oldal 22 / 26 Ugrás ide:
|◄ Első  ◄ Előző  18 19 20 21 22  23   24   25   26     Következő ►  Utolsó ►|

Fórum főoldal  |  A lap aljára

mestervill | 160    2016-11-14 09:25:06 [701]


kymco1 | 1028    2016-11-13 20:39:18 [700]


Szabó Sándor | 46    2016-11-13 16:01:48 [699]

http://kepfeltoltes.hu/view/161113/WP_20161113_15_42_02_Pro_www.kepfeltoltes.hu_.jpg


Timbrus | 259    2016-11-13 08:56:46 [698]


Timbrus | 259    2016-11-13 08:56:24 [697]

Timbrus | 259    2016-11-12 19:25:37 [696]


Timbrus | 259    2016-11-12 19:24:59 [695]

[IMG]http://gtfkephost.hu/files/2016/45/12/rdqav03h87.jpg" border="0" style="max-width:990px">[/img]


Timbrus | 259    2016-11-12 19:23:01 [694]

[img]http://kepfeltoltes.hu/thumb/161112/IMG_20161112_184355_www.kepfeltoltes.hu_.jpg" border="0" style="max-width:990px"> A képet a Képfeltöltés.hu tárolja. http://www.kepfeltoltes.hu[/img]


Timbrus | 259    2016-11-12 18:37:43 [693]


Timbrus | 259    2016-11-12 18:36:07 [692]

[img]http://kepfeltoltes.hu/thumb/161112/IMG_20161025_084951_www.kepfeltoltes.hu_.jpg" border="0" style="max-width:990px"> A képet a Képfeltöltés.hu tárolja. http://www.kepfeltoltes.hu[/img]


Timbrus | 259    2016-11-12 18:34:43 [691]

Omron [img]http://kepfeltoltes.hu/thumb/161112/IMG_20161025_085002_www.kepfeltoltes.hu_.jpg" border="0" style="max-width:990px"> A képet a Képfeltöltés.hu tárolja. http://www.kepfeltoltes.hu[/img]


Timbrus | 259    2016-11-12 18:33:49 [690]

Omron [img]http://kepfeltoltes.hu/thumb/161112/IMG_20161025_085002_www.kepfeltoltes.hu_.jpg" border="0" style="max-width:990px"> A képet a Képfeltöltés.hu tárolja. http://www.kepfeltoltes.hu[/img]


Servotomi | 331    2016-11-12 10:36:41 [689]

Előzmény: Servotomi, 2016-11-12 10:30:28 [688]


Servotomi | 331    2016-11-12 10:30:28 [688]


kymco1 | 1028    2016-11-12 09:32:38 [687]

Eladó az alábbi Csiszológép Ár 300000Ft+posta.

Atti19 | 1077    2016-11-12 07:47:13 [686]


Franczy | 4336    2016-11-11 23:43:54 [685]

Próba:


TakiDekor | 367    2016-11-10 20:58:45 [684]


TakiDekor | 367    2016-11-10 20:57:06 [683]

[img]http://www.imgserv.com/images/2016/11/10/0BvcEo8bRS.th.jpg" border="0" style="max-width:990px">[/img]


Franczy | 4336    2016-11-10 19:30:17 [682]

Próba


Timbrus | 259    2016-11-10 16:10:49 [681]

Sinus fej...


svejk | 26009    2016-11-10 14:30:16 [680]

KERESEK megvételre EVK71-060 tranzisztor modulokat


Timbrus | 259    2016-11-10 12:14:20 [679]

A képet a Képfeltöltés.hu tárolja. http://www.kepfeltoltes.hu][/url]


Timbrus | 259    2016-11-10 12:13:32 [678]

Siemens KTP6000 [img]http://kepfeltoltes.hu/thumb/161110/IMG_20161110_114057_www.kepfeltoltes.hu_.jpg" border="0" style="max-width:990px"> A képet a Képfeltöltés.hu tárolja. http://www.kepfeltoltes.hu[/img]


b-max | 61    2016-11-10 09:55:57 [677]

Frekvenciaváltó 550W-os További kép Adatlap 13e FT


Franczy | 4336    2016-11-09 19:52:58 [676]

Ha itt sikerült a kép és átakarod vinni a megfelelő topikba ahova megálmodtad, nem kell ismételten töltögetni: 1. jobb egér katt a képre -> majd rákattintasz a "kép megjelenítése" 2. felső címsorból kimásolod az éppen megjelent linket: https://lh4.googleusercontent.com/_bjRHC4QmoglkH-84qeA2TBTpN5KkFGEscLPCFrQK2ruQDKbq1cAwwFsvS6GBvRFEY-UtDq6Oz0QJ9LcqShbpA=w1366-h609 3. rákattintasz a beíró ablak alatt, jobbra lent a [Kép link beszúrása] - beilleszted és örülünk!

Előzmény: Franczy, 2016-11-09 19:46:11 [675]


Franczy | 4336    2016-11-09 19:46:11 [675]

Előzmény: bajusz, 2016-11-09 16:16:37 [673]


Franczy | 4336    2016-11-09 19:45:14 [674]

[647] -es hozzászólásig lapozzál le és az alapján próbáld meg!

Előzmény: bajusz, 2016-11-09 16:16:37 [673]


bajusz | 88    2016-11-09 16:16:37 [673]


bajusz | 88    2016-11-09 16:09:20 [672]

szf | 1702    2016-11-09 11:01:40 [671]

A képet a Képfeltöltés.hu tárolja. http://www.kepfeltoltes.hu


szf | 1702    2016-11-09 11:00:20 [670]


szf | 1702    2016-11-09 10:58:14 [669]


szf | 1702    2016-11-09 10:56:54 [668]


szf | 1702    2016-11-09 10:55:44 [667]


Timbrus | 259    2016-11-09 07:11:02 [666]


Timbrus | 259    2016-11-09 07:09:19 [665]

Szervók.... [IMG]http://gtfkephost.hu/files/2016/45/09/9zqchdy32i.jpg" border="0" style="max-width:990px">[/img]


Timbrus | 259    2016-11-09 07:08:28 [664]

Szervók.............!!!!!! [/URL][/img]


Devera csaba | 354    2016-11-08 21:28:59 [663]


dreco69 | 4    2016-11-07 06:32:13 [662]

CNC router


zotykó | 285    2016-11-06 21:59:23 [661]


b-max | 61    2016-11-06 20:02:23 [660]

Pentium 3-as laptop 256M RAM, 20G HDD, akku nélkül, gyári töltőjével További képek 4e Ft Mini PC 1Ghz procival []További képek[/url] 5e Ft Szerszámbefogó : További képek 14e Ft Eaton tápegységek : - Névleges teljesitmény : 900 Watt - Kimeneti feszültség : névleges : 48 Volt - gyakorlati: 54, 7 (programozható EEPROM átirásával : 48-57 Volt) - Kimeneti áram leszabályzása : 18.75A 14e Ft További képek - Gyári adatlap 12 Volt 40A tápegységek További képek 7e Ft Eladó 12 Volt - 82.3 Amper tápegység Tipusa : Delta DPS-800GB A Kimeneti feszültség : 12, 15 Volt Maximális kimeneti áram :82.3 A További képek 14e Ft I/O kártya 32 csatorna TTL-level digital I/O ,16-channel Optically Isolated Digital Input and 16 Open-Collector Digital Output Board(Current Sinking) : 10e Ft Adatlap ITT ! Régi analóg alapműszer További képek 2e Ft Egy kupac fémhalogén spot, nem működnek !! További képek 5e Ft a kupac nagyja (a kicsik már nincsenek meg) 2500 uF 450 Volt kondi További képek 3e Ft Webox, Foxpost, Postaautomata, futár-os küldés megoldható ! Fotókat kérésre küldök még . Érdeklődés emailba, vagy 2o 9kettő 62 három O négy


Timbrus | 259    2016-11-06 09:39:27 [659]

Elrest


Timbrus | 259    2016-11-06 08:50:08 [658]


Timbrus | 259    2016-11-06 08:49:25 [657]

Szervó motor motor

PSoft | 10753    2016-11-05 18:26:33 [656]


csicso | 3    2016-11-05 07:58:04 [655]

CNC váz


csicso | 3    2016-11-05 07:56:18 [654]

http://www.imgserv.com/images/2016/11/04/WJOeICd.jpg CNC gépváz


Franczy | 4336    2016-11-04 19:52:18 [653]

Miért a képfeltöltés.hu-ra teszed?? [647] -ben le van írva lépésről lépésre hogy kell csinálni, azt próbáld meg!

Előzmény: schlosser409, 2016-11-04 18:47:19 [650]


Franczy | 4336    2016-11-04 19:48:07 [652]

Bezony műxik! 5* -ös...

Előzmény: RJancsi, 2016-11-04 18:33:17 [649]


Fórum főoldal  |  A lap tetejére

Időrend:
Oldal 22 / 26 Ugrás ide:
|◄ Első  ◄ Előző  18 19 20 21 22  23   24   25   26     Következő ►  Utolsó ►|